TimeEST,TemperatureF,Dew PointF,Humidity,Sea Level PressureIn,VisibilityMPH,Wind Direction,Wind SpeedMPH,Gust SpeedMPH,PrecipitationIn,Events,Conditions,WindDirDegrees,DateUTC
12:15 AM,32.0,28.4,87,29.62,1.5,SE,5.8,-,N/A,,Overcast,140,2012-01-23 05:15:00
12:35 AM,32.0,28.4,87,29.60,2.0,SE,5.8,-,N/A,,Overcast,140,2012-01-23 05:35:00
12:55 AM,32.0,28.4,87,29.59,1.8,SE,5.8,-,N/A,,Overcast,130,2012-01-23 05:55:00
1:15 AM,32.0,28.4,87,29.58,1.8,SE,9.2,-,N/A,,Overcast,130,2012-01-23 06:15:00
1:35 AM,32.0,28.4,87,29.58,2.5,SE,10.4,-,N/A,,Overcast,130,2012-01-23 06:35:00
1:55 AM,32.0,28.4,87,29.57,3.0,ESE,8.1,-,N/A,,Overcast,120,2012-01-23 06:55:00
2:15 AM,32.0,28.4,87,29.55,5.0,ESE,6.9,-,N/A,,Overcast,120,2012-01-23 07:15:00
2:35 AM,32.0,28.4,87,29.54,4.0,ESE,5.8,-,N/A,,Overcast,120,2012-01-23 07:35:00
2:55 AM,32.0,28.4,87,29.53,3.0,ESE,5.8,-,N/A,,Overcast,120,2012-01-23 07:55:00
3:15 AM,32.0,28.4,87,29.53,2.5,ESE,6.9,-,N/A,,Overcast,110,2012-01-23 08:15:00
3:35 AM,32.0,28.4,87,29.52,2.0,ESE,6.9,-,N/A,,Overcast,110,2012-01-23 08:35:00
3:55 AM,32.0,28.4,87,29.50,3.0,East,5.8,-,N/A,,Overcast,90,2012-01-23 08:55:00
4:15 AM,33.8,28.4,81,29.48,2.5,East,6.9,-,N/A,,Overcast,80,2012-01-23 09:15:00
4:35 AM,33.8,28.4,81,29.47,4.0,ENE,5.8,-,N/A,,Overcast,70,2012-01-23 09:35:00
4:55 AM,33.8,28.4,81,29.44,3.0,NE,8.1,-,N/A,,Overcast,50,2012-01-23 09:55:00
5:15 AM,32.0,28.4,87,29.42,3.0,NE,9.2,-,0.01,,Overcast,50,2012-01-23 10:15:00
5:55 AM,32.0,28.4,87,29.40,4.0,NE,6.9,-,0.04,,Overcast,50,2012-01-23 10:55:00
6:15 AM,32.0,26.6,80,29.38,4.0,ENE,8.1,-,0.03,,Overcast,60,2012-01-23 11:15:00
6:35 AM,32.0,26.6,80,29.35,4.0,ENE,10.4,-,0.05,,Overcast,60,2012-01-23 11:35:00
6:55 AM,32.0,26.6,80,29.32,5.0,NE,9.2,-,0.05,,Overcast,50,2012-01-23 11:55:00
7:15 AM,32.0,26.6,80,29.31,7.0,NE,9.2,-,0.02,,Overcast,50,2012-01-23 12:15:00
7:35 AM,32.0,26.6,80,29.32,5.0,East,4.6,-,0.02,,Overcast,80,2012-01-23 12:35:00
8:15 AM,32.0,28.4,87,29.30,4.0,NNE,6.9,-,N/A,,Overcast,30,2012-01-23 13:15:00
8:35 AM,32.0,28.4,87,29.30,8.0,Calm,Calm,-,0.03,,Overcast,0,2012-01-23 13:35:00
8:55 AM,32.0,28.4,87,29.28,8.0,NNE,4.6,-,0.05,,Overcast,20,2012-01-23 13:55:00
9:15 AM,32.0,28.4,87,29.28,5.0,NNE,4.6,-,0.01,,Overcast,30,2012-01-23 14:15:00
9:35 AM,32.0,28.4,87,29.27,6.0,NNE,5.8,-,0.02,,Overcast,30,2012-01-23 14:35:00
9:55 AM,32.0,28.4,87,29.27,3.0,North,4.6,-,0.02,,Overcast,360,2012-01-23 14:55:00
10:15 AM,32.0,28.4,87,29.27,1.5,NNW,3.5,-,0.01,,Overcast,340,2012-01-23 15:15:00
10:35 AM,32.0,28.4,87,29.26,1.0,NNW,4.6,-,0.01,,Overcast,340,2012-01-23 15:35:00
10:55 AM,32.0,28.4,87,29.27,1.0,NNW,6.9,-,0.01,,Overcast,330,2012-01-23 15:55:00
11:15 AM,32.0,28.4,87,29.26,1.2,NNW,6.9,-,N/A,,Overcast,330,2012-01-23 16:15:00
11:35 AM,32.0,28.4,87,29.26,1.8,NNW,6.9,-,N/A,,Overcast,340,2012-01-23 16:35:00
11:55 AM,32.0,28.4,87,29.24,9.0,NNW,5.8,-,N/A,,Overcast,340,2012-01-23 16:55:00
12:15 PM,32.0,28.4,87,29.24,9.0,NNW,6.9,-,N/A,,Overcast,330,2012-01-23 17:15:00
12:35 PM,33.8,28.4,81,29.24,4.0,NNW,4.6,-,N/A,,Overcast,330,2012-01-23 17:35:00
12:55 PM,33.8,28.4,81,29.24,7.0,NW,4.6,-,N/A,,Overcast,310,2012-01-23 17:55:00
1:15 PM,33.8,28.4,81,29.24,8.0,WNW,4.6,-,N/A,,Overcast,300,2012-01-23 18:15:00
1:35 PM,33.8,28.4,81,29.24,5.0,WNW,5.8,-,N/A,,Mostly Cloudy,290,2012-01-23 18:35:00
1:55 PM,32.0,28.4,87,29.25,1.5,West,6.9,-,N/A,,Overcast,280,2012-01-23 18:55:00
2:15 PM,33.8,28.4,81,29.25,1.2,WNW,8.1,-,0.01,,Overcast,290,2012-01-23 19:15:00
2:35 PM,33.8,28.4,81,29.25,2.0,West,8.1,-,0.01,,Overcast,280,2012-01-23 19:35:00
2:55 PM,33.8,28.4,81,29.26,5.0,West,6.9,-,0.01,,Overcast,280,2012-01-23 19:55:00
3:35 PM,33.8,28.4,81,29.28,10.0,West,9.2,-,N/A,,Mostly Cloudy,270,2012-01-23 20:35:00
3:55 PM,33.8,28.4,81,29.29,10.0,West,11.5,-,N/A,,Mostly Cloudy,270,2012-01-23 20:55:00
4:15 PM,35.6,28.4,75,29.30,10.0,West,10.4,-,N/A,,Mostly Cloudy,280,2012-01-23 21:15:00
4:35 PM,33.8,28.4,81,29.32,10.0,West,10.4,-,N/A,,Partly Cloudy,280,2012-01-23 21:35:00
4:55 PM,33.8,28.4,81,29.33,10.0,West,9.2,-,N/A,,Scattered Clouds,280,2012-01-23 21:55:00
5:15 PM,33.8,26.6,75,29.35,10.0,West,10.4,-,N/A,,Overcast,270,2012-01-23 22:15:00
5:35 PM,33.8,28.4,81,29.37,10.0,West,10.4,-,N/A,,Overcast,260,2012-01-23 22:35:00
5:55 PM,33.8,28.4,81,29.38,10.0,West,10.4,-,N/A,,Overcast,260,2012-01-23 22:55:00
6:15 PM,33.8,28.4,81,29.40,10.0,WSW,8.1,-,N/A,,Overcast,250,2012-01-23 23:15:00
6:35 PM,33.8,28.4,81,29.41,10.0,West,9.2,-,N/A,,Overcast,260,2012-01-23 23:35:00
6:55 PM,33.8,28.4,81,29.42,10.0,West,13.8,-,N/A,,Overcast,270,2012-01-23 23:55:00
7:15 PM,33.8,26.6,75,29.43,10.0,WNW,11.5,-,N/A,,Overcast,290,2012-01-24 00:15:00
7:35 PM,33.8,26.6,75,29.45,10.0,West,11.5,-,N/A,,Overcast,280,2012-01-24 00:35:00
7:55 PM,33.8,26.6,75,29.46,9.0,West,12.7,-,N/A,,Overcast,270,2012-01-24 00:55:00
8:15 PM,33.8,26.6,75,29.47,7.0,West,13.8,-,N/A,,Overcast,270,2012-01-24 01:15:00
8:55 PM,32.0,23.0,69,29.49,10.0,West,18.4,23.0,N/A,,Overcast,280,2012-01-24 01:55:00
9:15 PM,30.2,21.2,69,29.51,10.0,West,16.1,26.5,N/A,,Overcast,280,2012-01-24 02:15:00
9:35 PM,30.2,21.2,69,29.51,10.0,West,16.1,24.2,N/A,,Overcast,280,2012-01-24 02:35:00
9:55 PM,30.2,23.0,75,29.53,10.0,West,12.7,-,N/A,,Mostly Cloudy,270,2012-01-24 02:55:00
10:15 PM,30.2,21.2,69,29.54,10.0,West,13.8,18.4,N/A,,Overcast,270,2012-01-24 03:15:00
10:35 PM,30.2,21.2,69,29.55,10.0,West,16.1,-,N/A,,Overcast,270,2012-01-24 03:35:00
10:55 PM,30.2,21.2,69,29.56,9.0,West,19.6,26.5,N/A,,Overcast,270,2012-01-24 03:55:00
11:15 PM,28.4,19.4,69,29.58,9.0,West,17.3,26.5,N/A,,Overcast,280,2012-01-24 04:15:00
11:35 PM,28.4,19.4,69,29.59,10.0,WNW,13.8,23.0,N/A,,Mostly Cloudy,290,2012-01-24 04:35:00
11:55 PM,28.4,19.4,69,29.60,10.0,West,11.5,-,N/A,,Mostly Cloudy,280,2012-01-24 04:55:00